BREEZE-KM R/B (43438 NORAD) Tracking and Keplerian Element Data

This shows tracking and keplerian element data for the satellite.

Feedback or suggestion? Click here.




ElementValue
Catalog43438
NameBREEZE-KM R/B
Epoch Orbit430
Epoch Day144.62206625
Epoch Year2018
RAAN215.7275
Inclination98.6875
Eccentricity0.0253773
Argument of Perigee212.3913
Mean Anonmoly146.1506
Mean Motion14.96618454
Decay Rate1.523E-05
L11 43438U 18039B 18144.62206625 .00001523 00000-0 73864-4 0 9993
L22 43438 98.6875 215.7275 0253773 212.3913 146.1506 14.96618454 4302

Live tracking and technical data element details for BREEZE-KM R/B (NORAD 43438). BREEZE-KM R/B can be tracked NOW for your location showing map with azimuth and elevation plus other details from your city location.

Track the satellite on the map from your city or location and see movement details for azimuth, elevation, latitude, longitude, range, height, and movement on the map or in text.







IsCatalogInMostPopularTable: catalog: 43438, numindb: 137
Update: records affected: 1



GetName: 43438 BREEZE-KM R/B

Hit Count: updated at: Wed, 14 Nov 2018 15:57:41 GMT